Weather History for EGVA - February, 2013

Change the Weather History Date:

Friday, February 15, 2013

  Actual Average Record
Temperature  
Mean Temperature 40 °F -  
Max Temperature 50 °F 46 °F 51 °F (2012)
Min Temperature 29 °F 37 °F 29 °F (2013)
Degree Days  
Heating Degree Days 26    
Moisture  
Dew Point 35 °F    
Average Humidity 91    
Maximum Humidity 100    
Minimum Humidity 65    
Precipitation  
Precipitation 0.00 in - - ()
Sea Level Pressure  
Sea Level Pressure 30.11 in    
Wind  
Wind Speed 4 mph ()    
Max Wind Speed 9 mph    
Max Gust Speed -    
Visibility 5.1 miles    
Events      
Averages and records for this station are not official NWS values.
T = Trace of Precipitation, MM = Missing Value Source: Averaged Metar Reports

Daily Weather History Graph

Daily Weather History Graph

Search for Another Location

Airport or City:

Trip Planner

Search our weather history database for the weather conditions in past years. The results will help you decide how hot, cold, wet, or windy it might be!

Date:

Astronomy

Feb. 15, 2013 Rise Set
Actual Time 7:21 AM GMT 5:22 PM GMT
Civil Twilight 6:46 AM GMT 5:56 PM GMT
Nautical Twilight 6:07 AM GMT 6:36 PM GMT
Astronomical Twilight 5:28 AM GMT 7:14 PM GMT
Moon 9:03 AM GMT (2/15) 11:58 PM GMT (2/15)
Length of Visible Light 11h 10m
Length of Day
10h 00m
Waxing Crescent, 28% of the Moon is Illuminated
Feb 15
Waxing Crescent
Feb 17
First Quarter
Feb 25
Full
Mar 4
Last Quarter
Mar 11
New

Hourly Weather History & Observations

Time (GMT) Temp. Windchill Dew Point Humidity Pressure Visibility Wind Dir Wind Speed Gust Speed Precip Events Conditions
12:58 AM 34.5 °F - 34.2 °F 99% 30.00 in 6.2 mi West 2.3 mph - N/A   Clear
1:58 AM 34.0 °F 31.0 °F 33.6 °F 99% 30.03 in 6.2 mi West 3.5 mph - N/A   Clear
2:58 AM 31.3 °F 24.7 °F 31.1 °F 99% 30.05 in 6.2 mi West 6.9 mph - N/A   Clear
3:58 AM 30.4 °F 23.6 °F 30.2 °F 99% 30.05 in 6.2 mi West 6.9 mph - N/A   Clear
4:58 AM 31.1 °F 25.4 °F 30.9 °F 99% 30.07 in 6.2 mi West 5.8 mph - N/A   Clear
5:55 AM 30.2 °F 26.7 °F 30.2 °F 100% 30.05 in 3.7 mi South 3.5 mph - N/A   Clear
5:58 AM 29.7 °F 26.1 °F 29.5 °F 99% 30.08 in 3.7 mi SSE 3.5 mph - N/A   Clear
5:59 AM 30.2 °F - 30.2 °F 100% 30.06 in - SSE 2.3 mph - N/A   Clear
6:00 AM 30.2 °F - 30.2 °F 100% 30.06 in 2.5 mi SSE 2.3 mph - N/A   Clear
6:02 AM 30.2 °F - 30.2 °F 100% 30.06 in - SSE 2.3 mph - N/A   Clear
6:09 AM 32.0 °F 27.5 °F 30.2 °F 93% 30.06 in 2.5 mi SSW 4.6 mph - N/A   Clear
6:12 AM 30.2 °F 25.4 °F 30.2 °F 100% 30.06 in 3.7 mi SSW 4.6 mph - N/A   Clear
6:13 AM 30.2 °F 25.4 °F 30.2 °F 100% 30.06 in 5.0 mi SSW 4.6 mph - N/A   Clear
6:25 AM 30.2 °F 26.7 °F 30.2 °F 100% 30.06 in 3.7 mi SW 3.5 mph - N/A   Clear
6:32 AM 32.0 °F - 32.0 °F 100% 30.06 in 5.0 mi SW 2.3 mph - N/A   Clear
6:57 AM 32.0 °F - 32.0 °F 100% 30.07 in - SW 2.3 mph - N/A   Scattered Clouds
6:58 AM 32.0 °F 28.7 °F 32.0 °F 100% 30.09 in 2.5 mi SW 3.5 mph - N/A   Scattered Clouds
6:59 AM 32.0 °F 28.7 °F 32.0 °F 100% 30.07 in - SW 3.5 mph - N/A   Scattered Clouds
7:01 AM 32.0 °F 28.7 °F 32.0 °F 100% 30.07 in 1.7 mi SW 3.5 mph - N/A   Scattered Clouds
7:02 AM 32.0 °F 28.7 °F 32.0 °F 100% 30.07 in 1.5 mi SW 3.5 mph - N/A   Scattered Clouds
7:03 AM 32.0 °F 28.7 °F 32.0 °F 100% 30.07 in 1.2 mi SW 3.5 mph - N/A   Partly Cloudy
7:06 AM 32.0 °F 28.7 °F 32.0 °F 100% 30.07 in 1.2 mi SW 3.5 mph - N/A   Partly Cloudy
7:07 AM 32.0 °F 28.7 °F 32.0 °F 100% 30.07 in 1.2 mi SW 3.5 mph - N/A   Partly Cloudy
7:09 AM 32.0 °F 28.7 °F 32.0 °F 100% 30.07 in 1.5 mi SW 3.5 mph - N/A   Partly Cloudy
7:11 AM 32.0 °F 28.7 °F 32.0 °F 100% 30.07 in 1.7 mi SW 3.5 mph - N/A   Partly Cloudy
7:12 AM 32.0 °F 27.5 °F 32.0 °F 100% 30.07 in - SW 4.6 mph - N/A   Partly Cloudy
7:13 AM 32.0 °F 27.5 °F 32.0 °F 100% 30.07 in 2.5 mi SW 4.6 mph - N/A   Partly Cloudy
7:16 AM 32.0 °F 27.5 °F 32.0 °F 100% 30.07 in 3.7 mi SW 4.6 mph - N/A   Partly Cloudy
7:58 AM 32.2 °F 26.7 °F 32.0 °F 99% 30.12 in 6.2 mi West 5.8 mph - N/A   Mostly Cloudy
8:58 AM 33.8 °F 30.8 °F 33.6 °F 99% 30.13 in 6.2 mi West 3.5 mph - N/A   Clear
9:58 AM 40.8 °F 36.2 °F 40.5 °F 99% 30.14 in 6.2 mi West 6.9 mph - N/A   Scattered Clouds
10:01 AM 41.0 °F 36.4 °F 41.0 °F 100% 30.12 in 6.2 mi West 6.9 mph - N/A   Mostly Cloudy
10:03 AM 41.0 °F 36.4 °F 41.0 °F 100% 30.12 in 6.2 mi West 6.9 mph - N/A   Scattered Clouds
10:58 AM 45.0 °F 41.2 °F 40.8 °F 85% 30.15 in 6.2 mi WNW 6.9 mph - N/A   Clear
11:58 AM 47.7 °F - 40.1 °F 75% 30.15 in 6.2 mi WNW 8.1 mph - N/A   Clear
12:58 PM 49.1 °F - 38.7 °F 67% 30.15 in 6.2 mi West 8.1 mph - N/A   Scattered Clouds
1:05 PM 50.0 °F - 39.2 °F 66% 30.13 in 6.2 mi West 6.9 mph - N/A   Mostly Cloudy
1:33 PM 48.2 °F - 37.4 °F 66% 30.13 in 6.2 mi Variable 6.9 mph - N/A   Scattered Clouds
1:42 PM 48.2 °F - 37.4 °F 66% 30.13 in 6.2 mi WNW 8.1 mph - N/A   Mostly Cloudy
1:58 PM 48.9 °F - 37.8 °F 65% 30.15 in 6.2 mi NNW 5.8 mph - N/A   Mostly Cloudy
2:58 PM 48.9 °F - 38.7 °F 68% 30.15 in 6.2 mi West 5.8 mph - N/A   Overcast
3:16 PM 48.2 °F - 37.4 °F 66% 30.13 in 6.2 mi West 6.9 mph - N/A   Scattered Clouds
3:49 PM 50.0 °F - 39.2 °F 66% 30.13 in 6.2 mi WSW 9.2 mph - N/A   Mostly Cloudy
3:58 PM 48.9 °F - 38.5 °F 67% 30.15 in 6.2 mi WSW 8.1 mph - N/A   Mostly Cloudy
4:58 PM 45.9 °F 42.9 °F 39.0 °F 77% 30.16 in 6.2 mi West 5.8 mph - N/A   Overcast
5:18 PM 42.8 °F 39.3 °F 37.4 °F 81% 30.15 in 6.2 mi West 5.8 mph - N/A   Scattered Clouds
5:31 PM 42.8 °F 41.1 °F 37.4 °F 81% 30.15 in 6.2 mi West 3.5 mph - N/A   Mostly Cloudy
5:40 PM 42.8 °F 40.1 °F 37.4 °F 81% 30.15 in 6.2 mi West 4.6 mph - N/A   Mostly Cloudy
5:58 PM 40.8 °F 36.9 °F 38.3 °F 91% 30.19 in 6.2 mi West 5.8 mph - N/A   Overcast
6:03 PM 41.0 °F 37.1 °F 37.4 °F 87% 30.16 in 6.2 mi West 5.8 mph - N/A   Overcast
6:30 PM 39.2 °F 34.2 °F 39.2 °F 100% 30.17 in 6.2 mi West 6.9 mph - N/A   Overcast
6:48 PM 39.2 °F 35.0 °F 37.4 °F 93% 30.17 in 6.2 mi West 5.8 mph - N/A   Overcast
6:58 PM 39.7 °F 37.6 °F 38.5 °F 95% 30.19 in 6.2 mi SW 3.5 mph - N/A   Overcast
7:58 PM 40.1 °F - 38.3 °F 93% 30.20 in 6.2 mi West 2.3 mph - N/A   Overcast
8:58 PM 39.7 °F - 38.5 °F 95% 30.20 in 6.2 mi WNW 1.2 mph - N/A   Overcast
9:31 PM 41.0 °F - 39.2 °F 93% 30.19 in 6.2 mi North 2.3 mph - N/A   Overcast
9:58 PM 39.9 °F 35.8 °F 39.0 °F 97% 30.21 in 6.2 mi NW 5.8 mph - N/A   Overcast
10:25 PM 41.0 °F - 39.2 °F 93% 30.19 in 6.2 mi West 2.3 mph - N/A   Overcast
10:58 PM 40.3 °F - 38.7 °F 94% 30.21 in 6.2 mi SSW 2.3 mph - N/A   Overcast
11:58 PM 39.6 °F - 38.8 °F 97% 30.21 in 6.2 mi WSW 1.2 mph - N/A   Overcast